Weather in Aneeva

Russia / Khanty-Mansi Autonomous Okrug — Yugra     63°08′56″N   63°58′43″E
temp.,
°C
wind,
m/s
gust,
m/s
humid.,
%
clouds,
%
prec.,
mm/h
press.,
hPa
HPBL,
m
6 march, sat
sat623:00−16nw119894 0.1 99720
02:00−16n119892 0.1 99720
05:00−17nne119895 0.1 99820
08:00−17ne1198100 0.1 99820
11:00−13nnw1192100 0.1 998229
14:00−11nw1289100 0.0 999455
17:00−11wnw1394100 0.1 1000275
20:00−13wnw1396100 0.1 100191
7 march, sun
sun723:00−15wnw2397100 0.2 100370
02:00−18w2497100 0.1 1003101
05:00−23wsw239896 0.1 100549
08:00−24wsw239899 0.0 100567
11:00−20wsw239699 0.1 1006223
14:00−17wsw239299 0.0 1007388
17:00−17wsw239499 0.1 1008259
20:00−21wsw229984 0.0 100820
8 march, mon
mon823:00−22w1210072 0.0 100920
02:00−22nnw129991 0.1 100820
05:00−24n229990 0.1 100820
08:00−25n229894 0.0 100825
11:00−21n239595 0.1 1008281
14:00−18nne2388100 0.0 1008550
17:00−20ne2394100 0.1 1008309
20:00−27ene229990 0.0 100919
9 march, tue
tue923:00−30ne229761 0.0 101019
02:00−32ne22980 0.0 101019
05:00−33ne239815 0.0 101038
08:00−33ne249885 0.0 101091
11:00−28ne249692 0.0 1010224
14:00−26ne3595100 0.0 1010301
17:00−26ne3695100 0.0 1010248
20:00−27nne3796100 0.1 1010246
10 march, wed
wed1023:00−27nne3796100 0.1 1010294
02:00−28nne2697100 0.1 1010201
05:00−32n239795 0.1 101077
08:00−33n129756 0.0 101023
11:00−27nnw119132 0.0 1010282
14:00−23wsw228998 0.0 1009389
17:00−23sw139498 0.0 1008207
20:00−28ssw229925 0.0 100720